Location: Kershaw
(34.5481°N, 80.5823°W)
Time: 13:33:36
(UTC+00:00)

Transit 4A - Pass Details

Date: 05 October 2022
Orbit: 871 x 972 km, 66.8° (Epoch: 29 November)

Event Time Altitude Azimuth Distance (km) Brightness Sun altitude
Rises 12:48:32 0° 325° (NW) 3,472 10.4 17.0°
Reaches altitude 10° 12:51:09 10° 318° (NW) 2,525 9.7 17.5°
Maximum altitude 12:56:31 40° 250° (WSW) 1,269 8.5 18.5°
Drops below altitude 10° 13:01:52 10° 183° (S) 2,516 10.5 19.5°
Sets 13:04:29 0° 176° (S) 3,458 11.2 20.0°
